Tracking 31028 objects as of 18-Jul-2025
HD Live streaming from Space Station
objects crossing your sky now

STARLINK-5828

Track STARLINK-5828 now!
10-day predictions
STARLINK-5828 is classified as:


NORAD ID: 57070
Int'l Code: 2023-088Y
Perigee: 565.3 km
Apogee: 567.2 km
Inclination: 43.0 °
Period: 95.8 minutes
Semi major axis: 6937 km
RCS: Unknown
Launch date: June 22, 2023
Source: United States (US)
Launch site: AIR FORCE WESTERN TEST RANGE (AFWTR)
Your satellite tracking list
Your tracking list is empty




NASA's NSSDC Master Catalog

Two Line Element Set (TLE):
1 57070U 23088Y   25198.29351133  .00000049  00000-0  18679-4 0  9990
2 57070  43.0037 294.0983 0001381 275.8381  84.2304 15.02531567114204
Source of the keplerian elements: AFSPC